[Iaude] MPEC T58: 2023 TN1 [a=2.54,e=0.58,i=18.6,H=24.3]

mpec at marsden.cfa.harvard.edu mpec at marsden.cfa.harvard.edu
Fri Oct 6 20:55:51 EDT 2023


M.P.E.C. 2023-T58                               Issued 2023 October 7, 00:54 UT

     The Minor Planet Electronic Circulars contain information on unusual
         minor planets, routine data on comets and natural satellites,
         and occasional editorial announcements.  They are published
    on behalf of Division F of the International Astronomical Union by the
          Minor Planet Center, Smithsonian Astrophysical Observatory,
                          Cambridge, MA 02138, U.S.A.
			  
             Prepared using the Tamkin Foundation Computer Network

                              MPC at CFA.HARVARD.EDU
            URL https://www.minorplanetcenter.net/    ISSN 1523-6714

                                    2023 TN1                                    


Observations:
     K23T01N*1C2023 10 05.30812301 10 24.143+10 38 05.82         19.13GVET058G96
     K23T01N 1C2023 10 05.31375001 10 23.833+10 39 52.49               VET058G96
     K23T01N 1C2023 10 05.31939601 10 23.560+10 41 39.62         19.21GVET058G96
     K23T01N 1C2023 10 05.32502801 10 23.293+10 43 25.72         19.21GVET058G96
     K23T01N  C2023 10 05.37985101 10 20.337+11 00 38.40         19.1 GVET058H01
     K23T01N  C2023 10 05.38268701 10 20.206+11 01 31.95         19.3 GVET058H01
     K23T01N  C2023 10 05.39345301 10 19.732+11 04 55.27         19.6 GVET058H01
     K23T01N KB2023 10 05.39907 01 10 18.70 +11 06 31.3          19.4 rZET058H36
     K23T01N  C2023 10 05.40009601 10 19.451+11 07 00.89         19.6 GVET058H01
     K23T01N KB2023 10 05.40423 01 10 18.47 +11 08 08.7          19.0 rZET058H36
     K23T01N KB2023 10 05.40938 01 10 18.24 +11 09 45.9          19.4 rZET058H36
     K23T01N KC2023 10 05.84798901 10 23.45 +13 29 10.9          19.2 GXET058958
     K23T01N KC2023 10 05.85373401 10 23.39 +13 31 00.5          19.2 GXET058958
     K23T01N KC2023 10 05.85948001 10 23.19 +13 32 51.7          19.1 GXET058958
     K23T01N KB2023 10 05.88046301 10 21.276+13 39 30.35         18.3 GXET058K74
     K23T01N KB2023 10 05.89270401 10 20.858+13 43 27.19         18.4 GXET058K74
     K23T01N KB2023 10 05.92539001 10 20.67 +13 54 05.5          19.6 V ET058I93
     K23T01N KB2023 10 05.93078801 10 20.40 +13 55 49.1          19.3 V ET058I93
     K23T01N KB2023 10 05.93617801 10 20.26 +13 57 33.6          19.1 V ET058I93
     K23T01N KB2023 10 05.98707 01 10 17.51 +14 13 58.9          19.5 VZET058C95
     K23T01N KB2023 10 06.00304 01 10 16.74 +14 19 06.3          20.2 VZET058C95
     K23T01N hC2023 10 06.09527801 10 12.21 +14 48 41.4          19.3 GVET058L01
     K23T01N hC2023 10 06.09675701 10 12.21 +14 49 09.6          19.4 GVET058L01
     K23T01N hC2023 10 06.09848601 10 12.15 +14 49 42.8          19.5 GVET058L01
     K23T01N KC2023 10 06.23046201 10 15.52 +15 32 37.3          20.1 VuET058H21
     K23T01N KC2023 10 06.23239001 10 15.43 +15 33 15.0          20.1 VuET058H21
     K23T01N KC2023 10 06.23438201 10 15.34 +15 33 53.6          20.2 VuET058H21
     K23T01N 1C2023 10 06.36555501 10 11.176+16 16 34.82         19.31GVET058G96
     K23T01N 1C2023 10 06.37136401 10 10.884+16 18 27.50         19.34GVET058G96
     K23T01N 1C2023 10 06.37716801 10 10.592+16 20 19.90         19.54GVET058G96
     K23T01N  C2023 10 06.38023701 10 11.227+16 21 17.08         20.0 GVET058654
     K23T01N  C2023 10 06.38224201 10 11.123+16 21 56.01         20.0 GVET058654
     K23T01N 1C2023 10 06.38299101 10 10.304+16 22 13.37         19.84GVET058G96
     K23T01N KB2023 10 06.93490 01 10 06.58 +19 21 36.8          19.4 GXET058M45
     K23T01N KB2023 10 06.93917 01 10 06.33 +19 23 00.5          19.7 GXET058M45
     K23T01N KB2023 10 06.94661 01 10 06.05 +19 25 26.8          19.9 GXET058M45
     K23T01N KB2023 10 06.95113001 10 07.411+19 26 49.21         19.1 GXET058B72
     K23T01N KB2023 10 06.95895301 10 07.096+19 29 23.76         19.1 GXET058B72
     K23T01N KB2023 10 06.96677301 10 06.748+19 31 57.61         19.7 GXET058B72

Observer details:
654 Table Mountain Observatory, Wrightwood-PHMC.  Observers N. Evans, P. Choi,
    N. Saini, C. Zhai, R. Trahan, M. Shao.  1.0-m Reflector + CCD.
958 Observatoire de Dax.  Observers P. Dupouy, J. B. de Vanssay.  Measurer P.
    Dupouy.  0.43-m f/2.7 Reflector + CCD.
B72 Soerth.  Observer B. Koch.  0.36-m f/7.6 reflector + CMO.
C95 SATINO Remote Observatory, Haute Provence.  Observers D. Husar, K. Meo.
    Measurer D. Husar.  0.30-m f/5.8 reflector + CMO.
G96 Mt. Lemmon Survey.  Observers G. J. Leonard, K. W. Wierzchos.  Measurers
    E. C. Beshore, D. Fay, J. B. Fazekas, D. C. Fuls, A. R. Gibbs, A. D.
    Grauer, H. Groeller, J. K. Hogan, R. A. Kowalski, S. M. Larson, G. J.
    Leonard, D. Rankin, R. L. Seaman, F. C. Shelly, K. W. Wierzchos.  1.5-m
    reflector + 10K CCD.
H01 Magdalena Ridge Observatory, Socorro.  Observers W. H. Ryan, E. V. Ryan.
    Measurer W. H. Ryan.  2.4-m f/8.9 Ritchey-Chretien + CCD.
H21 Astronomical Research Observatory, Westfield.  Observer R. Holmes.
    Measurers T. Linder, R. Holmes, L. Horn.  0.76-m f/3.0 astrograph + CCD.
H36 Sandlot Observatory, Scranton.  Observer G. Hug.  0.56-m f/4.8 reflector +
    CMO.
I93 St Pardon de Conques.  Observer F. Losse.  0.40-m f/3.7 reflector + CMO.
K74 Muensterschwarzach Observatory, Schwarzach.  Observer C. Gerhard.  0.30-m
    f/3.75 reflector + CMO.
L01 Visnjan Observatory, Tican.  Observer K. Korlevic.  1.0-m f/2.9 reflector
    + CCD.
M45 Starhopper Observatory, Sfantu Gheorghe.  Observer F. Ursache.  0.41-m
    f/7.5 reflector + CMO.

Orbital elements:
2023 TN1                                                 Earth MOID = 0.0758 AU
Epoch 2023 Sept. 13.0 TT = JDT 2460200.5                Veres                   
M 350.84825              (2000.0)            P               Q                  
n   0.24290034     Peri.   17.93718     +0.87425113     -0.48129397             
a   2.5440012      Node    11.48294     +0.39706056     +0.63353526             
e   0.5833242      Incl.   18.62194     +0.27933470     +0.60579632             
P   4.06           H   24.35          G   0.15           U   9                  
Residuals in seconds of arc
231005 G96  0.2+  0.5-    231005 958  1.0+  0.4-    231006 H21  0.2-  0.3+
231005 G96  0.3-  0.2-    231005 K74  0.1-  0.2-    231006 G96  0.0   0.0
231005 G96  0.2-  0.3+    231005 K74  0.2+  0.3+    231006 G96  0.1+  0.1-
231005 G96  0.0   0.1-    231005 I93  0.1-  0.5+    231006 G96  0.1+  0.3-
231005 H01  0.1+  0.0     231005 I93  0.9-  0.2-    231006 654  0.0   0.1-
231005 H01  0.1+  0.0     231005 I93  0.3+  0.0     231006 654  0.1-  0.1-
231005 H01  0.1+  0.1-    231005 C95  0.6+  0.7+    231006 G96  0.1+  0.2+
231005 H36  0.8-  0.3+    231006 C95  0.1-  0.2-    231006 M45  0.3+  1.9-
231005 H01  0.1+  0.1+    231006 L01  0.5-  0.3+    231006 M45  0.3-  1.9-
231005 H36  1.5-  0.3+    231006 L01  0.2+  0.0     231006 M45  0.8+  1.4-
231005 H36  2.2-  0.3+    231006 L01  0.2+  0.1-    231006 B72  0.4-  1.3+
231005 958  0.1-  0.9+    231006 H21  0.4-  0.1+    231006 B72  0.0   2.2+
231005 958  1.4+  0.5-    231006 H21  0.4-  0.4+    231006 B72  0.0   2.6+

Ephemeris:
2023 TN1                 a,e,i = 2.54, 0.58, 19                  q = 1.0600
Date    TT    R. A. (2000) Decl.     Delta      r    Elong.  Phase     V
2023 09 07    01 01 12.9 -44 24 14   0.2480  1.1929   133.7    37.6    23.2
...
2023 09 22    01 09 24.8 -32 21 58   0.1407  1.1204   143.6    32.1    21.7
...
2023 09 30    01 10 40.6 -13 01 13   0.09542 1.0921   160.5    17.8    20.4
...
2023 10 06    01 10 17.1 +14 18 48   0.07780 1.0764   168.6    10.6    19.6
2023 10 07    01 10 05.7 +19 43 29   0.07713 1.0742   164.5    14.4    19.8
2023 10 08    01 09 52.1 +25 10 09   0.07718 1.0722   159.9    18.6    19.9
...
2023 10 14    01 07 41.7 +53 35 29   0.09129 1.0634   134.2    42.2    20.9
...
2023 10 22    01 02 42.7 +74 22 27   0.1319  1.0601   116.1    57.5    22.2
...
2023 11 06    01 00 00.1 +87 57 37   0.2234  1.0801   107.6    61.1    23.4

M. P. C. Staff               (C) Copyright 2023 MPC           M.P.E.C. 2023-T58





More information about the Iaude mailing list